(320341) = 2005 FS12 = 2007 TC152

Discovered at Socorro on 2007-10-09 by LINEAR.

Orbit

Orbit type: Main Belt

Note: WebGL enabled browser required.

epoch2024-03-31.0
epoch JD2460400.5
perihelion date2023-02-14.06958
perihelion JD2459989.56958
argument of perihelion (°)202.13364
ascending node (°)202.96994
inclination (°)11.09822
eccentricity0.0739662
perihelion distance (AU)2.7003869
Tisserand w.r.t. Jupiter3.2
ΔV w.r.t. Earth (km/sec)10.8
semimajor axis (AU)2.9160782
mean anomaly (°)81.33424
mean daily motion (°/day)0.19792700
aphelion distance (AU)3.132
period (years)4.98
P-vector [x]0.70857700
P-vector [y]0.67282618
P-vector [z]0.21265835
Q-vector [x]-0.70162362
Q-vector [y]0.70387654
Q-vector [z]0.11082471
absolute magnitude16.22
phase slope0.15
uncertainty0
referenceMPEC 2024-D35
observations used336
oppositions16
arc length (days)11457
first opposition used1992
last opposition used2024
residual rms (arc-secs)0.77
perturbers coarse indicatorM-v
perturbers precise indicator003Ek
first observation date used1992-10-03.0
last observation date used2024-02-15.0
computer nameMPCLINUX
JD of orbit computation2456819.684799
perihelion JD uncertainty (days)2.0521E-04
argument of perihelion uncertainty (°)4.8083E-05
ascending node uncertainty (°)2.3017E-05
inclination uncertainty (°)7.7124E-06
eccentricity uncertainty 5.9512E-08
perihelion distance uncertainty (AU)1.7101E-07
Minimum Orbit Intersection Distances (in AU)
for orbit epoch: 2460400.5, reference: E2024-D35
Mercury2.37832
Venus1.97773
Earth1.7116
Mars1.23452
Jupiter2.22933
Saturn6.32847
Uranus15.4162
Neptune27.1156

Observations

350 total observations over interval: 1992 10 03.20740 – 2024 02 15.336383
These data are available for download (format description).

Date (UT) J2000 RA J2000 Dec Magn Location Ref
1992 10 03.20740 00 13 36.82 +06 48 28.4 20.5 V 691 – Steward Observatory, Kitt Peak-Spacewatch MPS 236351
1992 10 03.23623 00 13 35.54 +06 48 13.1   691 – Steward Observatory, Kitt Peak-Spacewatch MPS 236351
1992 10 03.26495 00 13 34.28 +06 47 57.7   691 – Steward Observatory, Kitt Peak-Spacewatch MPS 236351
2000 04 05.28274 13 09 44.82 -08 58 34.9 19.6   704 – Lincoln Laboratory ETS, New Mexico MPS 319382
2000 04 05.30115 13 09 43.98 -08 58 27.1 19.9   704 – Lincoln Laboratory ETS, New Mexico MPS 319382
2000 04 05.31558 13 09 43.37 -08 58 21.0 20.1   704 – Lincoln Laboratory ETS, New Mexico MPS 319382
2000 04 05.33002 13 09 42.54 -08 58 15.2 20.0   704 – Lincoln Laboratory ETS, New Mexico MPS 319382
2002 10 04.22872 00 27 24.41 +07 26 28.8 19.8   644 – Palomar Mountain/NEAT MPS 236351
2002 10 04.29207 00 27 21.63 +07 25 55.1 19.8   644 – Palomar Mountain/NEAT MPS 236351
2002 10 04.35831 00 27 18.71 +07 25 20.1 19.9   644 – Palomar Mountain/NEAT MPS 236351
2005 03 17.41171 13 27 57.37 -11 24 29.6 20.9 V 691 – Steward Observatory, Kitt Peak-Spacewatch MPC 61918
2005 03 17.44106 13 27 56.37 -11 24 19.5 21.1 V 691 – Steward Observatory, Kitt Peak-Spacewatch MPC 61918
2005 03 17.46651 13 27 55.51 -11 24 11.1 21.2 V 691 – Steward Observatory, Kitt Peak-Spacewatch MPC 61918
2005 05 04.26726 12 56 27.94 -05 46 15.6 20.1 R G96 – Mt. Lemmon Survey MPS 236351
2005 05 04.27587 12 56 27.65 -05 46 11.8 21.0 R G96 – Mt. Lemmon Survey MPS 236351
2005 05 04.28448 12 56 27.39 -05 46 08.9 21.5 R G96 – Mt. Lemmon Survey MPS 236351
2005 05 04.29310 12 56 27.13 -05 46 05.7 19.6 R G96 – Mt. Lemmon Survey MPS 236351
2007 09 09.41697 00 47 19.91 +10 50 20.0   691 – Steward Observatory, Kitt Peak-Spacewatch MPS 236351
2007 09 09.43460 00 47 19.41 +10 50 13.6   691 – Steward Observatory, Kitt Peak-Spacewatch MPS 236351
2007 09 09.45221 00 47 18.83 +10 50 07.7   691 – Steward Observatory, Kitt Peak-Spacewatch MPS 236351
2007 10 09.22667 00 27 57.90 +06 56 43.4 20.2   704 – Lincoln Laboratory ETS, New Mexico MPS 220868
2007 10 09.23764 00 27 57.48 +06 56 37.0 20.3   704 – Lincoln Laboratory ETS, New Mexico MPS 220868
2007 10 09.24875 00 27 56.87 +06 56 29.1 20.3   704 – Lincoln Laboratory ETS, New Mexico MPS 220868
2007 10 12.16539 00 25 57.71 +06 30 25.0 19.9 R 734 – Farpoint Observatory, Eskridge MPS 223621
2007 10 12.16905 00 25 57.55 +06 30 23.3 19.8 R 734 – Farpoint Observatory, Eskridge MPS 223621
2007 10 12.17265 00 25 57.41 +06 30 21.2 19.7 R 734 – Farpoint Observatory, Eskridge MPS 223621
2007 10 12.17625 00 25 57.26 +06 30 19.3 19.8 R 734 – Farpoint Observatory, Eskridge MPS 223621
2007 10 12.22343 00 25 55.34 +06 29 55.2 20.6   704 – Lincoln Laboratory ETS, New Mexico MPS 220868
2007 10 12.23461 00 25 54.88 +06 29 48.2 20.6   704 – Lincoln Laboratory ETS, New Mexico MPS 220868
2007 10 12.24574 00 25 54.44 +06 29 42.7 20.9   704 – Lincoln Laboratory ETS, New Mexico MPS 220868
2007 10 14.28480 00 24 33.51 +06 11 36.4 19.9 V G96 – Mt. Lemmon Survey MPS 223621
2007 10 14.29311 00 24 33.19 +06 11 31.5 19.6 V G96 – Mt. Lemmon Survey MPS 223621
2007 10 14.30150 00 24 32.86 +06 11 27.3 19.6 V G96 – Mt. Lemmon Survey MPS 223621
2007 10 14.31012 00 24 32.47 +06 11 22.0 19.0 V G96 – Mt. Lemmon Survey MPS 223621
2007 11 01.17558 00 15 17.56 +03 47 16.6 20.2 V G96 – Mt. Lemmon Survey MPS 236351
2007 11 01.18219 00 15 17.42 +03 47 14.3 20.2 V G96 – Mt. Lemmon Survey MPS 236351
2007 11 01.18880 00 15 17.28 +03 47 11.4 20.3 V G96 – Mt. Lemmon Survey MPS 236351
2007 11 01.19538 00 15 17.10 +03 47 08.6 20.3 V G96 – Mt. Lemmon Survey MPS 236351
2007 11 09.21156 00 13 08.58 +02 56 37.7 20.5 V G96 – Mt. Lemmon Survey MPS 236351
2007 11 09.21765 00 13 08.47 +02 56 35.8 20.6 V G96 – Mt. Lemmon Survey MPS 236351
2007 11 09.22359 00 13 08.40 +02 56 33.9 20.5 V G96 – Mt. Lemmon Survey MPS 236351
2007 11 09.22952 00 13 08.32 +02 56 31.8 20.5 V G96 – Mt. Lemmon Survey MPS 236351
2007 12 04.16095 00 15 59.76 +01 35 23.4 21.4 V G96 – Mt. Lemmon Survey MPS 236351
2007 12 04.16754 00 15 59.86 +01 35 23.4 21.2 V G96 – Mt. Lemmon Survey MPS 236351
2007 12 04.17410 00 16 00.01 +01 35 22.7 20.9 V G96 – Mt. Lemmon Survey MPS 236351
2007 12 04.18069 00 16 00.22 +01 35 22.8 21.5 V G96 – Mt. Lemmon Survey MPS 236351
2010 03 19.29400 13 33 22.11 -11 30 57.3 20.9 V 691 – Steward Observatory, Kitt Peak-Spacewatch MPS 317987
2010 03 19.31168 13 33 21.52 -11 30 50.9 20.9 V 691 – Steward Observatory, Kitt Peak-Spacewatch MPS 317987
2010 03 19.32938 13 33 20.93 -11 30 44.6 20.7 V 691 – Steward Observatory, Kitt Peak-Spacewatch MPS 317987
2010 04 21.16087 13 10 51.53 -07 36 29.7   691 – Steward Observatory, Kitt Peak-Spacewatch MPS 323488
2010 04 21.17852 13 10 50.79 -07 36 21.7   691 – Steward Observatory, Kitt Peak-Spacewatch MPS 323488
2010 04 21.19962 13 10 49.85 -07 36 12.2   691 – Steward Observatory, Kitt Peak-Spacewatch MPS 323488
2010 05 05.27783 13 02 13.34 -05 59 48.6 21.7 V 291 – LPL/Spacewatch II MPS 324918
2010 05 05.28502 13 02 13.10 -05 59 46.7 21.7 V 291 – LPL/Spacewatch II MPS 324918
2010 05 05.29225 13 02 12.88 -05 59 43.8 21.3 V 291 – LPL/Spacewatch II MPS 324918
2011 06 30.45191 18 31 29.811 -07 14 33.42 20.7 g F51 – Pan-STARRS 1, Haleakala MPS 386297
2011 06 30.46221 18 31 29.301 -07 14 33.42 20.7 g F51 – Pan-STARRS 1, Haleakala MPS 386297
2011 06 30.47356 18 31 28.708 -07 14 33.05 20.2 r F51 – Pan-STARRS 1, Haleakala MPS 386297
2011 06 30.48336 18 31 28.212 -07 14 32.90 20.0 r F51 – Pan-STARRS 1, Haleakala MPS 386297
2012 09 11.29330 00 53 21.61 +10 57 03.0 20.3 G G45 – Space Surveillance Telescope, Atom Site MPS 1609504
2012 09 11.32973 00 53 20.45 +10 56 50.2 20.0 G G45 – Space Surveillance Telescope, Atom Site MPS 1609504
2012 09 11.39453 00 53 18.33 +10 56 26.0 20.7 G G45 – Space Surveillance Telescope, Atom Site MPS 1609504
2012 09 11.40616 00 53 18.03 +10 56 21.8 20.6 G G45 – Space Surveillance Telescope, Atom Site MPS 1609504
2012 09 14.17106 00 51 50.45 +10 38 49.3 19.6 R J04 – ESA Optical Ground Station, Tenerife MPS 433264
2012 09 14.19131 00 51 49.75 +10 38 41.5 19.8 R J04 – ESA Optical Ground Station, Tenerife MPS 433264
2012 09 14.21156 00 51 49.04 +10 38 33.3 20.0 R J04 – ESA Optical Ground Station, Tenerife MPS 433264
2012 09 14.23182 00 51 48.35 +10 38 25.0 19.9 R J04 – ESA Optical Ground Station, Tenerife MPS 433264
2012 09 25.19158 00 44 58.38 +09 17 04.2 20.0 V 691 – Steward Observatory, Kitt Peak-Spacewatch MPS 434058
2012 09 25.20926 00 44 57.64 +09 16 55.2 20.2 V 691 – Steward Observatory, Kitt Peak-Spacewatch MPS 434058
2012 09 25.23332 00 44 56.58 +09 16 44.1 20.2 V 691 – Steward Observatory, Kitt Peak-Spacewatch MPS 434058
2012 09 25.25950 00 44 55.51 +09 16 31.0 20.1 V 691 – Steward Observatory, Kitt Peak-Spacewatch MPS 434058
2012 09 25.27718 00 44 54.74 +09 16 23.0 21.0 V 691 – Steward Observatory, Kitt Peak-Spacewatch MPS 434058
2012 09 25.29486 00 44 53.98 +09 16 13.7 20.0 V 691 – Steward Observatory, Kitt Peak-Spacewatch MPS 434058
2012 09 25.36259 00 44 51.14 +09 15 39.2 19.4 V 703 – Catalina Sky Survey MPS 434058
2012 09 25.36811 00 44 50.96 +09 15 37.1 20.4 V 703 – Catalina Sky Survey MPS 434058
2012 09 25.37363 00 44 50.64 +09 15 34.9 18.9 V 703 – Catalina Sky Survey MPS 434058
2012 09 25.37912 00 44 50.56 +09 15 33.5 20.0 V 703 – Catalina Sky Survey MPS 434058
2012 10 04.460988 00 38 27.013 +07 57 48.90 19.6 i F51 – Pan-STARRS 1, Haleakala MPS 434917
2012 10 04.473271 00 38 26.459 +07 57 42.34 19.4 i F51 – Pan-STARRS 1, Haleakala MPS 434917
2012 10 09.32665 00 35 00.45 +07 14 21.6 19.7 V G96 – Mt. Lemmon Survey MPS 437807
2012 10 09.32722 00 35 00.45 +07 14 21.4 19.6 V G96 – Mt. Lemmon Survey MPS 437807
2012 10 09.33935 00 34 59.91 +07 14 14.8 19.7 V G96 – Mt. Lemmon Survey MPS 437807
2012 10 09.33992 00 34 59.88 +07 14 14.7 19.6 V G96 – Mt. Lemmon Survey MPS 437807
2012 10 09.35220 00 34 59.34 +07 14 07.9 19.8 V G96 – Mt. Lemmon Survey MPS 437807
2012 10 09.35275 00 34 59.30 +07 14 07.7 19.8 V G96 – Mt. Lemmon Survey MPS 437807
2012 10 09.358636 00 34 59.297 +07 14 05.35 19.7 w F51 – Pan-STARRS 1, Haleakala MPS 437807
2012 10 09.36492 00 34 58.80 +07 14 01.1 19.7 V G96 – Mt. Lemmon Survey MPS 437807
